Flag Weather past 2 weeks in Laval, Quebec, Canada

Now
37 °F

Passing clouds.


Feels Like: 35 °F
Forecast: 35 / 45 °F
Wind: 3 mph from West

Location: Montreal / Mirabel

Current Time: Oct 31, 2014 at 1:13:10 AM

Latest Report: Oct 31, 2014 at 12:00 AM


Visibility: 25 mi

Pressure: 30.03 "Hg

Humidity: 65%

Dew point: 27 °F

Location of LavalLocation

Historic Weather in Laval — Graph

°F

Laval temperature yesterday

Maximum temperature yesterday: 48 °F (at 12:00 PM)
Minimum temperature yesterday: 36 °F (at 8:00 AM)
Average temperature yesterday: 42 °F

Past Weeks' High & Low Weather Summary

 TemperatureHumidityPressure
High64 °F (Oct 16, 12:00 AM)100% (Oct 16, 12:00 AM)30.32 "Hg (Oct 16, 12:00 AM)
Low32 °F (Oct 20, 8:00 AM)42% (Oct 19, 6:00 PM)29.40 "Hg (Oct 26, 3:00 AM)
Average48 °F77%29.84 "Hg
* Reported Midnight between Oct 15 and Oct 16 — Midnight between Oct 30 and Oct 31, Laval, Weather by CustomWeather, © 2014

Note: Actual official high and low records may vary slightly from our data, if they occured in-between our weather recording intervals... More about our weather records

Advertising

Laval weather history for previous 24 hours

 ConditionsComfort  
Time TempWeatherWind HumidityBarometerVisibility
12:00 AM
Oct 31
37 °FPassing clouds.3 mph65%30.03 "Hg25 mi
11:00 PM
Oct 30
37 °FPassing clouds.No wind65%30.03 "Hg25 mi
10:00 PM41 °FOvercast.3 mph57%30.03 "Hg25 mi
9:00 PM41 °FOvercast.3 mph61%30.04 "Hg25 mi
8:00 PM41 °FOvercast.3 mph57%30.03 "Hg25 mi
7:00 PM41 °FOvercast.5 mph57%30.02 "Hg25 mi
6:00 PM43 °FOvercast.6 mph57%30.01 "Hg25 mi
5:00 PM45 °FPartly sunny.10 mph57%29.99 "Hg45 mi
4:00 PM43 °FPartly sunny.6 mph66%29.98 "Hg45 mi
3:00 PM45 °FSprinkles. Partly sunny.9 mph61%29.97 "Hg45 mi
2:00 PM45 °FPartly sunny.10 mph57%29.97 "Hg45 mi
1:00 PM46 °FPartly sunny.8 mph53%29.98 "Hg45 mi
12:00 PM48 °FScattered clouds.7 mph54%29.98 "Hg45 mi
11:00 AM45 °FPassing clouds.5 mph61%29.99 "Hg45 mi
10:00 AM43 °FPassing clouds.5 mph71%29.99 "Hg45 mi
9:00 AM39 °FPassing clouds.2 mph75%29.98 "Hg35 mi
8:00 AM36 °FPassing clouds.3 mph87%29.97 "Hg35 mi
7:00 AM37 °FPassing clouds.5 mph81%29.94 "Hg45 mi
6:00 AM39 °FPassing clouds.3 mph81%29.92 "Hg25 mi
5:00 AM39 °FPassing clouds.3 mph81%29.90 "Hg25 mi
4:00 AM43 °FPassing clouds.6 mph76%29.87 "Hg25 mi
3:00 AM45 °FPartly cloudy.6 mph71%29.86 "Hg25 mi
2:00 AM46 °FMostly cloudy.8 mph66%29.85 "Hg25 mi
1:00 AM46 °FPassing clouds.7 mph76%29.83 "Hg25 mi
Weather by CustomWeather, © 2014

See weather overviewHow to use our weather pages